Regional Weather Roundup
Issued by NWS Charleston, SC

Current Version | Previous Version | Graphics & Text | Print | Product List | Glossary On
Versions: 1 2 3 4 5 6 7 8 9 10 11 12 13 14 15 16 17 18 19 20 21 22 23 24 25 26 27 28 29 30 31 32 33 34 35 36 37 38 39 40 41 42 43 44 45 46 47 48 49 50
000
ASUS42 KCHS 060711
RWRCHS

REGIONAL WEATHER ROUNDUP
NATIONAL WEATHER SERVICE CHARLESTON SC
200 AM EST FRI MAR 06 2015

NOTE: "FAIR" INDICATES FEW OR NO CLOUDS BELOW 12,000 FEET WITH NO
SIGNIFICANT WEATHER AND/OR OBSTRUCTIONS TO VISIBILITY.

NOT ALL STATIONS ARE QUALITY CONTROLLED BY THE NATIONAL
WEATHER SERVICE. USE DATA WITH CAUTION...ESPECIALLY
DEWPOINT OBSERVATIONS.

SCZ027-030-031-034>040-042>050-060800-
...SOUTHEAST SOUTH CAROLINA...

CITY           SKY/WX    TMP DP  RH WIND       PRES   REMARKS
N CHARLESTON   DRIZZLE   40  37  89 NE21G31   30.27R WCI  30
WATERFRONT PRK   N/A     41 N/A N/A N21         N/A
MOUNT PLEASANT DRIZZLE   39  37  93 N12G20    30.27R WCI  32
PINOPOLIS      NOT AVBL
MONCKS CORNER  CLOUDY    41  36  81 NE7G16    30.29R
SUMMERVILLE    CLOUDY    41  37  87 N13G22    30.29R
BEAUFORT MCAS  CLOUDY    43  40  89 N22G28    30.26R
BEAUFORT ARPT  CLOUDY    45  43  93 N18G25    30.25R
HILTON HEAD IS CLOUDY    46  45  93 N18G24    30.24R
WALTERBORO     CLOUDY    41  39  93 NE8G20    30.30R
ALLENDALE      CLOUDY    41  39  93 VRB6G16   30.29R

...SOUTHERN MIDLANDS AND PEE DEE...

CITY           SKY/WX    TMP DP  RH WIND       PRES   REMARKS
GEORGETOWN     NOT AVBL
KINGSTREE      NOT AVBL
ORANGEBURG     CLOUDY    40  33  76 NE9       30.30R WCI  34
BARNWELL       CLOUDY    41  36  81 NE10      30.30S
AIKEN          CLOUDY    39  32  75 N14       30.32R WCI  31
MANNING        CLOUDY    41  28  60 NE7G16    30.30R
COLUMBIA       CLOUDY    40  32  73 NE9       30.32R WCI  34
SUMTER         CLOUDY    37  31  79 NE20      30.30R WCI  27
FLORENCE       CLOUDY    38  30  73 NE16      30.32R WCI  29
MYRTLE BEACH   CLOUDY    39  34  81 N12       30.30S WCI  32
N MYRTLE BEACH CLOUDY    37  34  89 NE14      30.28R WCI  28

$$

GAZ063-065-086>088-099>101-113>116-118-119-134>141-150-060800-
...SOUTHEAST GEORGIA...

CITY           SKY/WX    TMP DP  RH WIND       PRES   REMARKS
SAVANNAH ARPT  CLOUDY    47  43  86 N10G21    30.24R
HUNTER AAF     CLOUDY    48  46  91 N12       30.21R
FORT STEWART   CLOUDY    51  46  83 NW9       30.20R
STATESBORO     CLOUDY    45  45 100 N13G18    30.25R FOG
SYLVANIA       DRIZZLE   44  44 100 NE12G17   30.28R
CLAXTON        CLOUDY    48  45  87 N6        30.24R

...CSRA...CENTRAL AND FAR SOUTHEAST GEORGIA...

CITY           SKY/WX    TMP DP  RH WIND       PRES   REMARKS
THOMSON        CLOUDY    44  40  85 NE10      30.34R
AUGUSTA-BUSH   CLOUDY    43  35  73 NE12      30.30R
AUGUSTA-DANIEL CLOUDY    44  36  73 NE10      30.30R
SWAINSBORO     CLOUDY    45  36  70 N6        30.26S
VIDALIA        CLOUDY    45  41  87 N10       30.25R
EASTMAN        CLOUDY    42  38  87 N5        30.30R
HAZLEHURST     CLOUDY    46  41  83 N7        30.24S
ALMA           CLOUDY    46  39  76 N9        30.23S
WAYCROSS       CLEAR     51  45  82 N13       30.23S
JESUP          CLOUDY    52  46  82 N10       30.22S
BAXLEY         CLOUDY    46  41  81 N10       30.23S
BRUNSWICK      MOCLDY    54  46  76 NW5       30.20F
SAINT SIMONS   MOCLDY    54  48  80 N8G16     30.19R

$$

SCZ027-028-034-036>038-045-046-048>050-GAZ119-141-060800-
...LAKE AND SUPPLEMENTAL COASTAL OBSERVATIONS...

STATION/POSITION TIME  TEMP    WIND        PRES    WAVE   SWELL
                       AIR SEA DIR/SP/G            HT/PER HT/PER/DIR
                 (UTC) (F)     (DEG/KT/KT) (MB)    (FT/S) (FT/S/D)
UPR LAKE MARION  NOT AVBL
WINYAH BAY       0545   40      20/  9     1023.0
LAKE MURRAY      0600   40      30/  5/  9 1025.4R
ACE BASIN NERRS  NOT AVBL
FORT PULASKI     0600   49 54  360/ 13/ 16 1023.4R
SAPELO ISLAND    0600   55     320/ 14     1022.0R

$$

ANZ835-935-AMZ111-154-330-350-352-354-370-450-454-472-060800-
...C-MAN AND BUOY OBSERVATIONS...

STATION/POSITION TIME  TEMP    WIND        PRES    WAVE   SWELL
                       AIR SEA DIR/SP/G            HT/PER HT/PER/DIR
                 (UTC) (F)     (DEG/KT/KT) (MB)    (FT/S) (FT/S/D)
BUOY 41004       0650   48 68   10/ 29/ 35 1021.7R   8/ 7   2/11
BUOY 41008       0650   55 54  340/ 17/ 21 1022.3R   2/10   2/ 70/10
FOLLY BEACH CMAN 0700   42      10/ 21/ 27 1024.7R
CAPERS NEARSHORE 0600   42     130/ 23/ 27   N/A
FRIPP NEARSHORE  0600   47      30/ 23/ 27 1022.5R


STATION/POSITION TIME  TEMP    WIND        PRES    WAVE   SWELL
                       AIR SEA DIR/SP/G            HT/PER HT/PER/DIR
                 (UTC) (F)     (DEG/KT/KT) (MB)    (FT/S) (FT/S/D)
5E ST. MARYS GA  0621      55                N/A     2/11   2/110/11
FRYING PAN BUOY  0650   42 63   20/ 29/ 35 1023.1R   9/ 7   2/120/10
BUOY 41025       NOT AVBL
CAPE LOOKOUT NC  0700           20/ 21/ 28 1024.9R
BUOY 41002       0650   74 73  240/ 19/ 23 1018.5F   7/ 7   3/260/ 8
BUOY 41010       0620   75 75  190/ 12/ 14 1020.0F
ST AUGUSTINE FL  0700   60     360/  8/  9 1021.4S


$$


USA.gov is the U.S. government's official web portal to all federal, state and local government web resources and services.